Pagosa Springs, CO

12:30 PM MST on January 21, 2018 (GMT -0700)
Pagosa Springs

Weather History for KPSO - November, 2012

Change the Weather History Date:

Thursday, November 29, 2012

  Actual Average (KE33) Record (KE33)
Temperature  
Mean Temperature 36 °F -  
Max Temperature 51 °F 38 °F 60 °F (1999)
Min Temperature 22 °F 21 °F 8 °F (2005)
Degree Days  
Heating Degree Days 28    
Moisture  
Dew Point 19 °F    
Average Humidity 57    
Maximum Humidity 86    
Minimum Humidity 27    
Precipitation  
Precipitation 0.00 in - - ()
Sea Level Pressure  
Sea Level Pressure 30.27 in    
Wind  
Wind Speed 2 mph (SSW)    
Max Wind Speed 12 mph    
Max Gust Speed 16 mph    
Visibility 10 miles    
Events Thunderstorm    
Averages and records for this station are not official NWS values.
T = Trace of Precipitation, MM = Missing Value Source: NWS Daily Summary

Daily Weather History Graph

Daily Weather History Graph

Search for Another Location

Airport or City:

Trip Planner

Search our weather history database for the weather conditions in past years. The results will help you decide how hot, cold, wet, or windy it might be!

Date:

Astronomy

Nov. 29, 2012 Rise Set
Actual Time 7:02 AM MST 4:51 PM MST
Civil Twilight 6:33 AM MST 5:19 PM MST
Nautical Twilight 6:01 AM MST 5:51 PM MST
Astronomical Twilight 5:29 AM MST 6:23 PM MST
Moon 5:56 PM MST (11/29) 7:51 AM MST (11/29)
Length of Visible Light 10h 46m
Length of Day
9h 48m
Full, 99% of the Moon is Illuminated
Nov 29
Full
Dec 6
Last Quarter
Dec 13
New
Dec 19
First Quarter
Dec 28
Full

Hourly Weather History & Observations

Time (MST) Temp. Windchill Dew Point Humidity Pressure Visibility Wind Dir Wind Speed Gust Speed Precip Events Conditions
12:15 AM 26.6 °F - 16.5 °F 66% 30.30 in 10.0 mi Calm Calm - N/A   Clear
12:35 AM 27.0 °F - 16.7 °F 65% 30.29 in 10.0 mi Calm Calm - N/A   Mostly Cloudy
12:55 AM 24.4 °F - 16.0 °F 70% 30.29 in 10.0 mi Calm Calm - N/A   Scattered Clouds
1:15 AM 25.0 °F - 15.8 °F 68% 30.28 in 10.0 mi Calm Calm - N/A   Clear
1:35 AM 25.9 °F - 16.3 °F 67% 30.27 in 10.0 mi Calm Calm - N/A   Clear
1:55 AM 25.7 °F - 16.0 °F 67% 30.27 in 10.0 mi Calm Calm - N/A   Clear
2:15 AM 25.7 °F - 17.2 °F 70% 30.28 in 10.0 mi Calm Calm - N/A   Clear
2:35 AM 24.3 °F - 16.5 °F 72% 30.28 in 10.0 mi Calm Calm - N/A   Mostly Cloudy
3:15 AM 25.5 °F - 16.7 °F 69% 30.27 in 10.0 mi Calm Calm - N/A   Scattered Clouds
3:35 AM 23.4 °F - 16.7 °F 76% 30.27 in 10.0 mi Calm Calm - N/A   Clear
3:55 AM 25.5 °F - 16.5 °F 69% 30.27 in 10.0 mi Calm Calm - N/A   Clear
4:15 AM 24.8 °F - 17.1 °F 72% 30.27 in 10.0 mi Calm Calm - N/A   Clear
4:35 AM 23.9 °F - 16.9 °F 75% 30.26 in 10.0 mi Calm Calm - N/A   Clear
4:55 AM 25.3 °F 19.7 °F 16.7 °F 70% 30.25 in 10.0 mi East 4.6 mph - N/A   Clear
5:15 AM 25.9 °F - 16.9 °F 69% 30.25 in 10.0 mi Calm Calm - N/A   Clear
5:35 AM 24.6 °F - 16.7 °F 72% 30.26 in 10.0 mi Calm Calm - N/A Thunderstorm Clear
5:55 AM 24.6 °F - 16.9 °F 72% 30.26 in 10.0 mi Calm Calm - N/A   Clear
6:15 AM 22.1 °F - 16.3 °F 79% 30.26 in 10.0 mi Calm Calm - N/A   Clear
6:35 AM 22.5 °F - 17.1 °F 80% 30.26 in 10.0 mi Calm Calm - N/A   Clear
6:55 AM 24.6 °F - 17.8 °F 75% 30.26 in 10.0 mi Calm Calm - N/A   Clear
7:15 AM 26.1 °F - 17.4 °F 70% 30.27 in 10.0 mi Calm Calm - N/A   Clear
7:35 AM 24.6 °F - 17.6 °F 75% 30.27 in 10.0 mi Calm Calm - N/A   Clear
7:55 AM 26.8 °F - 19.0 °F 73% 30.27 in 10.0 mi Calm Calm - N/A   Clear
8:15 AM 29.7 °F - 20.3 °F 68% 30.28 in 10.0 mi Calm Calm - N/A   Clear
8:35 AM 33.4 °F - 20.1 °F 58% 30.28 in 10.0 mi Calm Calm - N/A   Clear
9:15 AM 38.7 °F - 19.9 °F 47% 30.28 in 10.0 mi Calm Calm - N/A   Clear
9:35 AM 39.7 °F - 20.7 °F 46% 30.28 in 10.0 mi Calm Calm - N/A   Clear
9:55 AM 41.0 °F - 20.3 °F 44% 30.29 in 10.0 mi Calm Calm - N/A   Clear
10:15 AM 43.0 °F - 20.1 °F 40% 30.29 in 10.0 mi Calm Calm - N/A   Clear
10:35 AM 44.8 °F - 19.4 °F 36% 30.28 in 10.0 mi Calm Calm - N/A   Clear
10:55 AM 46.4 °F 44.3 °F 19.0 °F 34% 30.28 in 10.0 mi SSE 4.6 mph - N/A   Clear
11:15 AM 46.4 °F 44.3 °F 18.7 °F 33% 30.27 in 10.0 mi South 4.6 mph - N/A   Clear
11:35 AM 47.1 °F - 19.2 °F 33% 30.27 in 10.0 mi South 4.6 mph - N/A   Clear
11:55 AM 48.2 °F - 19.2 °F 32% 30.26 in 10.0 mi South 3.5 mph - N/A   Clear
12:15 PM 48.4 °F - 18.5 °F 31% 30.25 in 10.0 mi SSW 4.6 mph - N/A   Clear
12:35 PM 49.3 °F - 18.9 °F 30% 30.24 in 10.0 mi SW 6.9 mph - N/A   Clear
12:55 PM 50.2 °F - 18.9 °F 29% 30.24 in 10.0 mi SSW 6.9 mph - N/A   Clear
1:15 PM 50.0 °F - 18.9 °F 29% 30.23 in 10.0 mi South 5.8 mph - N/A   Clear
1:35 PM 50.2 °F - 18.7 °F 29% 30.23 in 10.0 mi South 6.9 mph - N/A   Clear
1:55 PM 51.1 °F - 18.1 °F 27% 30.23 in 10.0 mi SW 8.1 mph - N/A   Clear
2:15 PM 50.9 °F - 19.2 °F 29% 30.23 in 10.0 mi WSW 9.2 mph - N/A   Clear
2:35 PM 50.9 °F - 19.2 °F 29% 30.23 in 10.0 mi WSW 10.4 mph - N/A   Clear
2:55 PM 50.7 °F - 19.2 °F 29% 30.23 in 10.0 mi SW 8.1 mph - N/A   Clear
3:15 PM 50.5 °F - 19.2 °F 29% 30.23 in 10.0 mi WSW 11.5 mph - N/A   Clear
3:35 PM 50.2 °F - 19.4 °F 30% 30.24 in 10.0 mi WSW 9.2 mph - N/A   Clear
3:55 PM 50.2 °F - 19.4 °F 30% 30.24 in 10.0 mi SW 8.1 mph 16.1 mph N/A   Clear
4:15 PM 49.5 °F - 19.9 °F 31% 30.24 in 10.0 mi SSW 9.2 mph - N/A   Clear
4:35 PM 48.2 °F - 20.1 °F 33% 30.25 in 10.0 mi South 8.1 mph - N/A   Clear
4:55 PM 45.9 °F 43.6 °F 21.0 °F 37% 30.25 in 10.0 mi SW 4.6 mph - N/A   Clear
5:15 PM 45.5 °F 44.2 °F 21.2 °F 38% 30.26 in 10.0 mi WSW 3.5 mph - N/A   Clear
5:35 PM 39.6 °F - 21.2 °F 48% 30.26 in 10.0 mi Calm Calm - N/A   Clear
5:55 PM 35.1 °F - 21.0 °F 57% 30.27 in 10.0 mi Calm Calm - N/A   Clear
6:15 PM 34.9 °F 30.8 °F 21.7 °F 59% 30.27 in 10.0 mi NE 4.6 mph - N/A   Clear
6:35 PM 36.1 °F 31.4 °F 21.9 °F 56% 30.27 in 10.0 mi NNE 5.8 mph - N/A   Clear
6:55 PM 34.5 °F 31.6 °F 21.7 °F 60% 30.27 in 10.0 mi NNE 3.5 mph - N/A   Clear
7:15 PM 32.9 °F 28.5 °F 21.4 °F 63% 30.27 in 10.0 mi NNE 4.6 mph - N/A   Clear
7:35 PM 34.2 °F 29.0 °F 22.1 °F 61% 30.27 in 10.0 mi NNE 5.8 mph - N/A   Clear
7:55 PM 33.1 °F 30.0 °F 22.3 °F 65% 30.27 in 10.0 mi NNE 3.5 mph - N/A   Clear
8:15 PM 32.9 °F 27.5 °F 21.9 °F 64% 30.27 in 10.0 mi NNE 5.8 mph - N/A   Clear
8:35 PM 31.8 °F - 22.5 °F 68% 30.27 in 10.0 mi Calm Calm - N/A   Clear
8:55 PM 31.5 °F - 21.2 °F 66% 30.27 in 10.0 mi Calm Calm - N/A   Clear
9:15 PM 28.9 °F - 21.7 °F 74% 30.27 in 10.0 mi Calm Calm - N/A   Clear
9:35 PM 30.0 °F - 21.7 °F 71% 30.28 in 10.0 mi Calm Calm - N/A   Clear
9:55 PM 27.7 °F - 21.2 °F 77% 30.29 in 10.0 mi Calm Calm - N/A   Clear
10:15 PM 29.3 °F - 22.3 °F 75% 30.29 in 10.0 mi Calm Calm - N/A   Clear
10:35 PM 28.4 °F - 21.2 °F 74% 30.29 in 10.0 mi Calm Calm - N/A   Clear
10:55 PM 25.9 °F - 21.2 °F 82% 30.29 in 10.0 mi Calm Calm - N/A   Clear
11:15 PM 25.5 °F - 21.9 °F 86% 30.29 in 10.0 mi Calm Calm - N/A   Clear
11:35 PM 27.3 °F - 22.3 °F 81% 30.29 in 10.0 mi Calm Calm - N/A   Clear
11:55 PM 27.9 °F - 21.7 °F 78% 30.28 in 10.0 mi Calm Calm - N/A   Clear